Date String (YYYY-MM-DD hh:mm:ss) UTC,Instrument flags,Ambient pressure (hPa),Sample flow (lpm),Bypass flow (lpm),Sample temperature (°C),Ambient temperature (°C),ASC tube jacket temperature (°C),LED temperature (°C),Box temperature (°C),Sample RH (%),Span deviation,Mass concentration (μg/m³),Mass concentration (μg/m³),Mass concentration (μg/m³)
DateTimeUTC,F1_M11,P_M11,Q1_M11,Q2_M11,T1_M11,T2_M11,T3_M11,T4_M11,T5_M11,U1_M11,ZSPAN_M11,X0_M11,X2_M11,X1_M11
2021-12-24 23:00:00,,0811.4,5.00,0.00,23.5,22.9,00.0,32.4,25.3,23.7,0000.0,0002.32,0001.33,0000.91
2021-12-24 23:01:00,,0811.3,5.01,0.00,23.6,22.9,00.0,32.5,25.3,23.6,0000.0,0002.28,0001.32,0000.92
2021-12-24 23:02:00,,0811.2,5.00,0.00,23.6,22.9,00.0,32.5,25.3,23.5,0000.0,0002.32,0001.33,0000.93
2021-12-24 23:03:00,,0811.2,5.01,0.00,23.6,23.0,00.0,32.5,25.3,23.5,0000.0,0002.39,0001.37,0000.97
2021-12-24 23:04:00,,0811.2,5.00,0.00,23.6,23.0,00.0,32.5,25.4,23.5,0000.0,0002.89,0001.41,0001.02
2021-12-24 23:05:00,,0811.1,4.98,0.00,23.6,23.0,00.0,32.5,25.4,23.3,0000.0,0003.36,0001.49,0001.06
2021-12-24 23:06:00,,0811.0,5.00,0.00,23.6,23.0,00.0,32.5,25.4,23.1,0000.0,0003.33,0001.50,0001.08
2021-12-24 23:07:00,,0811.2,5.01,0.00,23.6,23.0,00.0,32.5,25.4,22.7,0000.0,0003.36,0001.50,0001.06
2021-12-24 23:08:00,,0811.2,5.00,0.00,23.6,23.0,00.0,32.5,25.4,21.7,0000.0,0004.06,0001.58,0001.03
2021-12-24 23:09:00,,0811.3,5.02,0.00,23.6,23.0,00.0,32.5,25.4,21.8,0000.0,0004.70,0001.58,0000.99
2021-12-24 23:10:00,,0811.3,5.00,0.00,23.6,23.0,00.0,32.5,25.4,22.0,0000.0,0005.52,0001.60,0000.94
2021-12-24 23:11:00,,0811.4,5.00,0.00,23.6,23.0,00.0,32.6,25.4,21.9,0000.0,0006.03,0001.59,0000.91
2021-12-24 23:12:00,,0811.4,4.99,0.00,23.6,23.0,00.0,32.6,25.4,21.9,0000.0,0006.16,0001.60,0000.87
2021-12-24 23:13:00,,0811.4,5.00,0.00,23.6,22.9,00.0,32.6,25.3,21.9,0000.0,0006.27,0001.61,0000.83
2021-12-24 23:14:00,,0811.4,5.00,0.00,23.6,22.9,00.0,32.6,25.2,22.1,0000.0,0006.39,0001.60,0000.78
2021-12-24 23:15:00,,0811.4,5.00,0.00,23.6,22.9,00.0,32.6,25.2,22.2,0000.0,0006.16,0001.57,0000.73
2021-12-24 23:16:00,,0811.4,5.00,0.00,23.5,22.8,00.0,32.6,25.2,22.3,0000.0,0005.69,0001.53,0000.69
2021-12-24 23:17:00,,0811.4,4.99,0.00,23.5,22.8,00.0,32.6,25.2,21.8,0000.0,0005.66,0001.52,0000.66
2021-12-24 23:18:00,,0811.5,5.01,0.00,23.5,22.8,00.0,32.5,25.2,21.8,0000.0,0005.72,0001.53,0000.65
2021-12-24 23:19:00,,0811.6,5.00,0.00,23.5,22.8,00.0,32.5,25.3,21.8,0000.0,0005.06,0001.43,0000.65
2021-12-24 23:20:00,,0811.6,4.99,0.00,23.5,22.8,00.0,32.5,25.3,21.5,0000.0,0004.14,0001.34,0000.64
2021-12-24 23:21:00,,0811.6,4.99,0.00,23.5,22.8,00.0,32.5,25.3,21.7,0000.0,0003.43,0001.25,0000.63
2021-12-24 23:22:00,,0811.5,5.00,0.00,23.5,22.8,00.0,32.5,25.3,21.6,0000.0,0002.87,0001.22,0000.62
2021-12-24 23:23:00,,0811.5,5.00,0.00,23.5,22.8,00.0,32.5,25.2,21.2,0000.0,0002.83,0001.18,0000.61
2021-12-24 23:24:00,,0811.6,4.99,0.00,23.5,22.8,00.0,32.5,25.2,21.5,0000.0,0002.96,0001.18,0000.62
2021-12-24 23:25:00,,0811.5,5.00,0.00,23.5,22.8,00.0,32.5,25.2,21.7,0000.0,0003.42,0001.22,0000.64
2021-12-24 23:26:00,,0811.6,5.00,0.00,23.5,22.8,00.0,32.5,25.3,21.8,0000.0,0005.11,0001.24,0000.64
2021-12-24 23:27:00,,0811.6,4.99,0.00,23.5,22.8,00.0,32.5,25.2,22.0,0000.0,0005.18,0001.21,0000.65
2021-12-24 23:28:00,,0811.6,4.99,0.00,23.5,22.8,00.0,32.5,25.2,22.0,0000.0,0005.27,0001.21,0000.66
2021-12-24 23:29:00,,0811.6,5.01,0.00,23.5,22.8,00.0,32.5,25.2,22.1,0000.0,0005.22,0001.21,0000.67
2021-12-24 23:30:00,,0811.6,4.99,0.00,23.5,22.8,00.0,32.5,25.2,22.3,0000.0,0005.23,0001.19,0000.69
2021-12-24 23:31:00,,0811.5,5.00,0.00,23.5,22.8,00.0,32.5,25.2,22.4,0000.0,0005.19,0001.19,0000.70
2021-12-24 23:32:00,,0811.4,5.00,0.00,23.5,22.8,00.0,32.5,25.2,22.5,0000.0,0005.16,0001.22,0000.73
2021-12-24 23:33:00,,0811.5,5.00,0.00,23.5,22.8,00.0,32.5,25.2,22.5,0000.0,0005.06,0001.21,0000.75
2021-12-24 23:34:00,,0811.5,5.00,0.00,23.5,22.7,00.0,32.5,25.2,22.5,0000.0,0004.94,0001.22,0000.78
2021-12-24 23:35:00,,0811.5,5.01,0.00,23.5,22.7,00.0,32.5,25.2,22.4,0000.0,0004.78,0001.20,0000.79
2021-12-24 23:36:00,,0811.6,5.00,0.00,23.5,22.7,00.0,32.5,25.2,22.5,0000.0,0004.27,0001.19,0000.81
2021-12-24 23:37:00,,0811.6,5.00,0.00,23.4,22.7,00.0,32.5,25.2,22.6,0000.0,0002.42,0001.15,0000.82
2021-12-24 23:38:00,,0811.5,5.00,0.00,23.4,22.7,00.0,32.5,25.2,22.6,0000.0,0002.42,0001.19,0000.84
2021-12-24 23:39:00,,0811.6,5.02,0.00,23.5,22.7,00.0,32.5,25.2,22.6,0000.0,0002.41,0001.22,0000.86
2021-12-24 23:40:00,,0811.6,4.99,0.00,23.5,22.8,00.0,32.5,25.2,22.6,0000.0,0002.43,0001.24,0000.88
2021-12-24 23:41:00,,0811.6,4.99,0.00,23.5,22.8,00.0,32.5,25.3,22.6,0000.0,0002.34,0001.25,0000.90
2021-12-24 23:42:00,,0811.6,5.00,0.00,23.5,22.8,00.0,32.5,25.3,22.6,0000.0,0002.37,0001.28,0000.92
2021-12-24 23:43:00,,0811.6,4.99,0.00,23.5,22.9,00.0,32.5,25.3,22.6,0000.0,0002.24,0001.26,0000.92
2021-12-24 23:44:00,,0811.6,5.00,0.00,23.5,22.9,00.0,32.5,25.3,22.6,0000.0,0002.34,0001.31,0000.94
2021-12-24 23:45:00,,0811.6,5.02,0.00,23.5,22.9,00.0,32.5,25.3,22.6,0000.0,0002.44,0001.34,0000.96
2021-12-24 23:46:00,,0811.6,4.98,0.00,23.6,22.9,00.0,32.5,25.3,22.6,0000.0,0002.39,0001.34,0000.99
2021-12-24 23:47:00,,0811.6,5.02,0.00,23.6,22.9,00.0,32.5,25.4,22.6,0000.0,0002.65,0001.38,0001.01
2021-12-24 23:48:00,,0811.6,5.00,0.00,23.6,22.9,00.0,32.5,25.4,22.5,0000.0,0002.74,0001.41,0001.04
2021-12-24 23:49:00,,0811.5,4.99,0.00,23.6,22.9,00.0,32.5,25.3,22.5,0000.0,0002.79,0001.41,0001.06
2021-12-24 23:50:00,,0811.5,5.00,0.00,23.6,22.9,00.0,32.5,25.3,22.6,0000.0,0002.75,0001.41,0001.09
2021-12-24 23:51:00,,0811.6,5.01,0.00,23.6,22.9,00.0,32.5,25.3,22.6,0000.0,0002.77,0001.43,0001.12
2021-12-24 23:52:00,,0811.6,4.98,0.00,23.6,22.9,00.0,32.5,25.3,22.5,0000.0,0003.00,0001.52,0001.15
2021-12-24 23:53:00,,0811.6,5.01,0.00,23.6,22.9,00.0,32.5,25.3,22.4,0000.0,0003.22,0001.58,0001.17
2021-12-24 23:54:00,,0811.6,5.00,0.00,23.6,22.9,00.0,32.5,25.3,22.2,0000.0,0003.32,0001.60,0001.18
2021-12-24 23:55:00,,0811.6,4.99,0.00,23.6,22.9,00.0,32.5,25.3,22.1,0000.0,0003.27,0001.60,0001.20
2021-12-24 23:56:00,,0811.5,5.01,0.00,23.6,22.9,00.0,32.5,25.4,22.1,0000.0,0003.39,0001.61,0001.21
2021-12-24 23:57:00,,0811.5,5.00,0.00,23.6,22.9,00.0,32.5,25.4,22.1,0000.0,0003.54,0001.68,0001.23
2021-12-24 23:58:00,,0811.5,5.01,0.00,23.6,22.9,00.0,32.5,25.4,22.1,0000.0,0003.28,0001.69,0001.26
2021-12-24 23:59:00,,0811.6,4.99,0.00,23.6,22.9,00.0,32.6,25.4,22.2,0000.0,0003.21,0001.71,0001.29
